Lapse_Rate
5.9 6.0 6.4 6.0 5.8 6.1 6.7 6.3 6.3 6.3 6.7 6.8 7.0 6.9 6.8 7.0 7.2 6.9 7.1 6.8 6.5 5.9 6.0 6.8 6.7 6.1 5.6 5.5 5.2 5.4 5.9 6.1 6.2 6.0 6.0 6.6 6.7 6.8 6.6 6.8 7.2 7.2 7.3 7.3 7.3
5.9 5.7 5.9 6.1 5.9 6.3 6.1 6.5 6.4 6.8 6.9 6.9 7.0 6.7 6.9 6.8 6.8 7.0 6.8 7.0 6.6 6.4 6.3 7.0 6.6 6.0 5.6 5.6 5.4 5.7 5.9 5.9 6.1 6.3 6.4 6.8 6.7 6.9 6.7 6.9 7.3 7.3 7.3 7.3 7.3
5.7 6.0 6.2 5.7 5.4 5.9 6.1 6.2 6.3 6.2 6.5 6.5 6.5 6.6 6.3 6.5 6.5 6.9 6.5 6.6 6.5 6.5 6.5 6.6 6.4 6.1 5.9 5.8 5.7 5.6 5.7 5.9 6.3 6.6 6.6 6.8 6.8 6.8 6.9 7.0 6.9 6.9 7.1 7.3 7.1
5.7 5.7 6.0 5.8 5.4 5.3 5.4 5.7 6.0 6.2 6.0 6.1 6.1 5.8 5.8 6.1 6.3 6.6 6.8 6.9 7.0 6.6 6.5 6.2 6.2 5.6 6.2 5.7 5.7 5.8 5.9 6.2 6.6 6.6 6.6 6.7 6.9 6.9 7.0 7.1 7.0 7.2 7.3 7.1 7.1
5.7 5.8 5.3 5.4 5.7 5.1 5.0 5.3 5.1 5.8 5.9 6.0 6.0 5.6 5.6 5.4 6.3 6.7 6.9 6.6 6.8 7.0 6.4 6.2 5.9 6.1 6.1 5.7 5.9 6.1 6.0 6.3 6.5 6.8 6.9 6.8 6.8 7.0 7.2 7.2 7.1 7.1 7.0 7.2 7.2
6.2 6.0 5.6 5.1 5.3 5.0 5.2 4.9 4.5 4.8 5.1 5.7 5.7 5.9 5.7 5.6 6.4 6.8 6.8 6.7 6.9 7.1 6.3 6.1 6.0 6.1 6.0 5.8 6.2 6.4 6.2 6.2 6.4 6.8 6.7 6.7 6.8 7.1 7.4 7.3 7.1 7.2 7.1 7.0 6.9
6.5 6.0 5.9 5.2 5.4 5.0 4.9 4.7 4.3 4.5 4.9 5.3 5.9 5.6 5.8 5.7 6.1 6.7 7.0 7.0 7.2 6.9 6.2 6.2 6.2 6.1 6.1 6.3 6.5 6.5 6.5 6.3 6.5 6.6 6.8 6.9 6.8 7.1 7.0 7.2 7.4 7.3 6.9 6.9 6.8
6.3 6.2 5.8 5.5 5.1 5.3 5.3 5.0 5.1 5.4 5.0 5.1 5.4 5.6 5.8 6.0 5.9 6.0 6.7 7.1 7.0 6.9 6.6 6.3 6.3 6.0 6.1 6.5 6.7 6.7 6.7 6.6 6.5 6.9 6.9 7.0 7.1 7.0 7.0 7.0 7.1 7.2 7.2 7.2 7.1
6.5 6.2 5.8 5.5 5.3 5.5 5.7 5.9 5.8 5.8 5.8 5.7 5.5 5.7 5.6 6.0 6.6 6.4 6.4 6.5 7.0 6.7 6.4 6.5 6.3 6.2 6.4 6.8 7.0 6.9 7.0 6.9 7.0 7.0 6.9 7.0 7.0 7.1 7.0 7.2 7.1 7.1 7.1 7.1 7.0
6.5 6.4 6.1 6.2 6.2 6.4 6.7 6.6 6.8 7.1 6.9 6.6 6.5 5.9 5.9 6.0 6.2 6.6 6.6 6.8 6.8 6.5 6.5 6.4 6.4 6.6 6.9 7.1 7.1 7.1 7.2 7.2 7.1 7.2 7.1 7.0 7.2 7.3 7.3 7.4 7.4 7.4 7.3 7.2 7.0
6.2 6.6 6.4 6.1 6.3 6.4 6.3 6.9 7.0 6.9 7.2 6.5 6.4 6.2 6.3 6.4 6.3 6.4 6.6 6.9 6.7 6.4 6.5 6.7 6.9 7.0 7.1 7.2 7.5 7.4 7.5 7.3 7.2 7.1 7.2 7.1 7.5 7.5 7.4 7.6 7.6 7.4 7.1 6.9 6.8
5.7 6.3 6.6 6.3 6.2 6.4 6.7 7.5 7.0 6.8 6.9 6.5 6.4 6.4 6.6 6.8 6.5 6.9 6.9 7.0 6.4 6.4 6.6 6.8 7.0 7.0 7.1 7.2 7.4 7.4 7.4 7.2 7.0 7.1 7.3 7.3 7.6 7.6 7.3 7.4 7.3 7.1 6.9 6.9 6.7
5.7 5.7 6.3 6.5 6.5 6.7 7.0 6.9 6.9 6.9 6.8 6.9 6.7 6.6 6.6 6.9 6.7 6.9 7.2 7.5 6.8 6.5 6.6 6.7 6.7 6.9 6.9 7.1 7.3 7.2 7.2 7.2 7.1 7.0 7.1 7.3 7.7 7.8 7.6 7.4 7.3 7.3 7.3 7.1 7.1
6.1 5.7 5.8 6.2 6.4 6.7 6.9 7.1 7.2 7.2 7.1 7.0 7.1 6.9 6.9 7.0 6.8 7.1 7.5 7.4 6.6 6.6 6.6 6.7 6.4 6.5 6.7 7.0 7.1 7.1 6.9 6.8 6.8 6.8 6.7 6.7 6.8 7.6 7.4 7.4 7.4 7.4 7.5 7.4 7.2
6.3 6.2 6.0 6.1 6.4 6.5 6.6 6.8 7.0 7.2 5.1 7.0 6.9 7.0 7.1 7.5 6.9 6.7 7.0 7.5 7.2 6.7 6.8 6.3 6.4 6.6 6.7 6.8 6.8 6.8 6.5 6.4 6.5 6.5 6.4 6.4 6.2 7.7 7.4 7.4 7.5 7.3 7.3 7.1 7.0
6.3 6.4 6.4 6.4 6.3 6.3 6.2 6.4 6.6 6.7 5.7 6.7 6.5 6.7 7.1 7.2 7.2 6.8 7.1 7.4 7.1 7.2 6.8 6.6 6.2 6.3 6.4 6.4 6.4 6.4 6.4 6.4 6.3 6.2 4.7 5.7 5.7 7.2 7.1 7.2 7.2 7.1 7.0 6.8 6.7
6.9 6.7 6.6 6.6 6.3 6.3 6.2 6.1 6.2 5.6 5.9 6.3 6.5 6.4 6.6 6.7 6.8 6.7 7.0 7.3 7.0 6.7 6.7 6.3 6.2 6.2 6.2 6.1 6.0 6.1 6.1 5.6 4.3 3.7 3.0 5.3 5.0 7.2 6.9 7.0 6.9 6.7 6.7 6.7 6.8
6.8 6.9 6.8 6.9 6.7 6.4 6.4 6.4 5.7 5.5 5.8 6.0 6.2 6.4 6.4 6.2 6.4 6.6 6.6 6.7 6.7 6.9 6.6 6.3 5.9 6.0 5.9 5.8 5.8 5.8 5.9 5.7 3.9 3.1 3.7 5.3 5.5 6.8 6.8 6.8 6.8 6.8 6.6 6.6 6.7
6.9 6.9 7.0 7.1 7.0 6.7 6.7 6.3 5.4 5.3 5.5 6.0 6.0 6.2 6.2 6.2 6.1 6.0 6.3 6.4 6.4 6.7 6.6 6.5 6.2 6.1 6.1 6.0 6.0 5.9 5.8 5.8 5.7 4.5 4.3 5.6 6.1 6.7 6.7 6.5 6.3 6.3 6.4 6.5 6.6
7.0 6.9 6.9 6.8 6.9 6.9 6.8 6.1 5.5 5.6 5.6 5.6 5.8 6.0 5.7 5.9 6.0 6.0 6.1 6.0 6.1 6.1 6.1 6.1 6.1 6.0 5.9 5.9 5.8 5.7 5.6 5.5 5.6 3.5 3.5 4.7 5.7 6.7 6.3 6.1 6.2 6.1 6.1 6.1 6.0
7.1 7.1 6.9 6.7 6.6 6.7 6.9 6.3 5.9 5.6 5.6 5.6 5.7 5.5 5.9 5.9 5.7 5.8 5.9 6.0 6.1 6.0 5.9 5.8 5.7 5.5 5.5 5.5 5.5 5.4 5.2 5.3 5.3 5.1 3.1 2.9 5.6 6.3 6.0 6.2 6.5 6.2 5.9 5.7 5.8
7.1 7.1 6.7 6.7 6.8 6.6 6.2 5.7 6.0 6.1 6.0 5.9 5.8 5.6 5.8 5.7 6.0 6.0 5.8 5.8 5.8 5.8 5.7 5.7 5.5 5.4 5.4 5.2 5.1 4.9 4.9 5.0 5.2 4.7 4.6 4.3 5.8 6.6 6.4 6.4 6.1 5.9 6.1 6.2 6.3
6.7 6.9 7.0 6.7 6.2 6.2 6.1 5.9 5.9 5.7 6.0 6.1 6.1 5.9 5.8 5.7 5.8 5.9 5.9 6.1 6.0 6.0 6.0 5.8 5.8 5.7 5.5 5.4 5.4 5.3 5.5 5.3 5.1 4.8 4.7 4.4 6.2 6.5 6.5 6.4 6.2 6.1 6.2 6.4 6.4
6.1 6.2 6.6 6.7 6.7 6.2 6.0 5.8 5.9 5.9 5.8 5.8 5.9 5.9 6.1 5.8 5.5 5.4 5.6 5.5 5.5 5.7 5.7 5.7 5.7 6.0 6.1 6.0 5.9 5.7 5.9 5.6 5.0 4.7 5.2 5.3 6.7 6.6 6.3 6.1 5.9 5.8 5.5 5.6 5.7
5.8 5.8 5.8 6.0 6.0 6.3 6.1 6.2 6.0 5.8 5.7 5.9 5.9 5.8 5.5 5.9 6.0 5.9 5.7 5.5 5.4 5.5 5.3 5.0 5.2 5.5 5.9 5.8 5.5 5.7 5.8 5.4 4.9 5.5 5.0 5.8 5.9 6.4 5.8 5.3 5.2 5.1 4.9 4.9 5.1
5.6 5.7 5.7 5.7 5.8 5.7 6.0 5.7 5.9 6.0 5.8 5.7 5.5 5.8 5.8 5.3 5.1 5.2 5.4 5.6 5.6 5.6 5.3 5.2 5.0 5.0 5.4 5.3 5.1 5.2 5.7 5.9 5.5 5.3 4.9 4.9 5.4 5.8 5.4 5.0 4.7 4.3 4.6 4.7 4.9
5.9 5.7 5.7 5.6 5.6 5.6 5.6 5.7 5.8 5.8 5.9 5.9 5.7 5.6 5.5 5.8 5.8 5.5 5.2 4.9 4.7 4.9 5.1 4.9 5.0 4.8 4.6 5.1 4.5 4.4 5.7 5.7 5.4 5.5 5.4 5.1 6.6 5.2 4.8 4.5 4.3 4.3 4.5 4.8 4.8
Wind_Speed
21 22 23 21 21 21 18 18 18 15 12 9 7 11 12 14 16 5 8 3 5 11 7 3 2 3 4 2 3 3 4 4 5 6 4 3 4 2 3 6 4 5 4 3 10
20 21 21 20 20 17 15 17 15 14 11 8 5 9 9 19 5 6 7 3 2 1 2 6 3 5 3 3 1 4 3 3 1 3 3 4 6 6 5 3 5 4 6 9 9
20 20 17 19 16 15 12 13 14 11 11 11 7 6 11 2 5 2 7 2 3 2 1 3 3 4 4 3 2 2 2 1 3 4 6 5 4 3 9 2 6 8 8 7 5
19 21 19 19 17 16 13 4 5 10 4 7 9 12 10 2 5 4 9 8 5 5 2 3 3 4 5 5 3 5 4 2 6 7 3 2 4 5 2 3 3 11 10 6 8
16 17 18 18 18 17 14 10 10 9 7 6 3 9 6 4 2 5 10 7 4 4 3 2 3 4 7 5 5 5 1 4 5 7 7 6 5 5 3 2 5 9 7 8 8
15 14 15 17 18 16 16 11 6 3 5 2 5 11 1 6 1 4 10 7 8 4 3 5 6 3 6 4 5 3 5 3 7 6 6 4 2 2 4 3 7 9 9 8 8
14 13 12 12 12 15 15 13 8 5 7 7 8 2 3 3 2 3 8 7 5 5 3 4 3 3 5 7 5 6 6 5 8 6 4 3 3 3 4 6 8 9 8 8 9
13 13 13 13 16 18 16 16 11 11 12 11 7 1 4 5 5 7 2 2 6 5 5 5 9 4 3 6 5 4 5 4 4 6 3 4 6 3 6 8 9 9 8 8 8
13 14 14 16 19 19 20 19 14 9 8 7 4 4 5 11 6 5 1 2 5 3 3 3 4 5 6 6 5 6 3 3 2 5 4 2 5 2 5 7 8 8 8 8 8
13 12 14 17 19 21 20 12 15 6 3 1 1 3 8 5 3 5 5 2 6 2 4 8 6 5 4 5 6 5 5 3 3 2 3 2 7 6 5 6 10 9 8 8 8
14 11 12 16 19 23 10 4 6 7 8 5 2 2 4 8 0 5 2 3 5 8 4 5 8 4 2 1 4 6 5 5 1 2 0 3 6 11 10 7 10 11 9 9 9
13 12 12 14 16 17 4 6 4 3 4 5 1 3 2 3 9 12 6 7 8 5 3 7 5 3 5 4 6 5 7 3 1 2 1 4 11 11 7 7 8 9 9 10 6
14 13 13 13 14 5 5 4 2 2 3 7 4 4 5 6 4 8 6 4 7 7 6 7 1 5 3 7 10 6 7 2 1 4 3 7 8 5 3 2 4 4 6 5 9
13 15 14 17 4 2 3 4 3 2 5 11 9 6 5 2 6 2 3 3 4 5 3 7 6 4 6 7 4 5 3 2 4 4 2 5 4 5 5 7 7 9 4 4 3
10 15 14 8 1 3 4 9 4 2 5 11 9 5 7 5 1 8 4 7 4 2 5 2 5 7 9 3 3 4 2 3 3 5 4 6 4 7 4 4 5 8 6 3 3
13 16 11 4 2 2 7 5 3 6 1 7 5 7 5 7 6 6 7 7 3 8 7 3 2 4 2 3 4 3 4 7 5 3 3 3 4 6 1 1 5 3 3 2 4
8 12 7 2 2 10 6 3 5 6 3 5 3 5 4 7 6 5 5 6 2 5 5 6 4 4 4 3 4 4 5 3 4 4 5 2 3 9 4 5 3 5 4 4 4
9 7 5 2 5 5 3 5 9 4 3 2 1 2 5 6 5 6 3 4 6 5 4 4 5 4 6 2 3 2 4 5 5 3 4 4 5 5 2 5 5 4 2 1 3
6 2 2 3 6 2 5 6 5 4 2 1 1 4 4 4 2 5 4 3 3 5 4 4 2 2 3 2 2 0 2 3 6 2 3 2 7 6 3 3 6 5 2 4 6
2 1 2 6 3 4 5 4 1 1 3 3 2 1 2 1 3 3 3 2 4 4 2 1 3 2 3 2 3 2 3 3 3 2 3 5 5 5 3 4 4 2 2 4 5
3 3 2 4 2 5 4 3 2 1 2 3 1 2 1 2 2 2 1 2 1 2 2 2 4 3 3 2 5 1 1 2 3 4 4 1 6 6 6 1 3 5 6 6 7
2 3 2 2 4 2 3 3 1 2 1 1 1 2 2 3 1 2 3 2 1 2 3 1 4 3 4 2 3 3 4 4 4 4 2 3 6 4 4 4 3 4 6 7 6
2 2 2 3 4 3 1 3 3 3 2 1 1 2 1 2 1 1 1 1 2 2 3 2 1 2 6 4 3 3 4 4 3 2 5 5 6 1 6 3 3 5 7 7 5
3 3 4 4 1 4 2 1 2 2 2 2 2 1 2 1 2 2 1 1 2 2 2 2 2 5 6 4 4 4 5 6 6 3 3 6 5 4 6 6 5 4 5 6 6
3 0 2 2 4 3 1 1 1 2 0 2 2 2 1 2 3 5 4 2 0 1 1 2 3 2 5 7 4 6 8 8 9 11 8 5 10 14 7 7 10 7 4 7 6
2 2 2 1 2 2 3 1 1 0 3 1 1 3 2 3 2 3 3 3 5 2 6 2 2 1 4 5 5 6 11 14 15 13 11 12 20 13 11 7 5 5 5 3 3
1 2 3 3 1 2 3 3 3 1 1 2 3 1 3 4 3 3 3 2 2 6 6 5 5 3 5 2 6 8 9 13 5 6 12 14 13 7 4 5 5 0 4 5 6
Wind_Direction
17 12 12 23 34 40 58 75 75 75 90 107 130 155 156 154 135 136 167 188 259 175 172 136 119 208 115 181 210 100 73 164 166 173 178 164 115 34 54 82 47 356 145 188 136
19 20 21 21 30 43 46 55 79 94 91 85 140 162 185 152 115 131 157 138 61 171 107 144 181 170 130 150 27 85 101 188 144 277 192 139 110 121 91 73 36 39 44 113 130
28 29 32 27 39 41 45 62 81 92 99 79 103 118 151 99 91 195 225 216 215 185 110 89 282 176 102 120 101 84 126 340 351 260 179 132 96 96 128 113 189 176 159 147 144
31 35 43 45 48 55 73 71 100 102 86 51 41 29 343 336 173 233 218 212 212 128 89 82 231 137 106 127 88 95 1 31 334 353 68 62 121 74 66 177 177 171 164 159 168
25 36 38 42 43 37 42 47 46 76 129 123 13 335 342 82 210 221 193 180 160 138 97 101 204 134 123 116 94 85 304 41 349 21 54 62 54 133 126 4 110 132 162 175 180
25 30 46 31 18 16 5 13 69 54 16 358 304 344 262 86 226 250 153 147 171 162 147 162 222 197 91 81 81 124 85 19 25 19 40 78 49 73 222 145 121 152 185 193 193
19 26 27 22 10 353 348 338 315 242 243 247 271 301 302 49 334 135 156 173 181 175 178 235 240 1 133 91 145 131 77 31 13 4 32 338 343 225 187 176 169 185 199 207 216
10 10 3 356 350 346 347 333 320 284 268 276 289 347 39 307 338 58 196 191 214 178 175 208 180 116 81 125 65 75 59 91 316 2 3 64 267 291 172 163 205 218 223 226 235
1 357 351 345 343 343 339 332 319 299 266 288 341 333 3 344 36 315 71 198 96 114 208 104 130 97 47 88 47 20 126 97 348 30 344 95 266 290 194 198 232 233 231 233 249
347 352 345 341 340 344 337 326 313 22 32 198 255 24 347 307 330 344 355 350 99 5 34 41 52 75 46 75 182 164 114 79 133 332 9 292 265 278 254 231 242 247 247 246 238
340 347 349 339 343 351 358 21 14 355 29 60 215 101 319 308 137 339 327 359 57 50 54 18 73 102 73 327 139 126 113 114 230 267 33 248 271 268 266 260 264 256 247 250 252
339 336 347 343 348 352 44 83 167 199 350 15 14 23 321 303 37 348 21 61 57 47 323 41 66 300 304 29 112 99 108 50 287 290 102 336 285 262 248 246 236 247 250 244 247
336 332 334 343 339 43 77 91 181 152 73 353 345 2 324 19 39 346 23 60 77 60 43 94 4 319 116 37 79 36 101 117 122 345 33 339 304 332 340 286 312 281 252 249 236
344 336 337 331 55 321 48 322 335 178 73 335 346 7 356 348 38 346 28 90 57 117 64 71 331 56 64 69 14 85 338 77 53 70 198 27 274 308 343 331 16 5 1 82 86
358 349 344 12 218 63 304 317 319 67 60 311 314 292 332 66 196 345 342 35 75 53 87 275 12 27 51 359 336 138 77 74 73 84 57 354 67 271 340 28 360 350 7 126 181
355 348 350 25 41 348 322 320 48 43 323 332 321 345 18 18 11 347 30 45 144 61 46 77 46 56 64 15 37 138 73 40 51 64 33 297 116 288 256 62 307 329 329 185 177
359 355 11 16 314 329 341 44 41 87 305 312 325 0 36 6 21 38 33 26 62 85 21 12 356 344 30 58 19 71 62 7 2 11 216 324 38 245 269 271 267 289 269 242 231
336 341 18 32 339 353 48 50 67 235 215 244 301 355 69 9 13 9 63 28 18 53 99 124 339 5 343 47 175 80 135 149 199 193 251 339 237 254 243 313 334 289 260 228 220
338 2 51 314 350 46 73 53 173 229 284 269 8 69 19 28 65 53 44 33 30 28 106 128 350 311 42 1 53 134 54 147 104 46 51 245 288 321 307 357 359 28 159 274 274
77 51 338 329 14 57 73 121 165 303 343 3 41 131 117 334 70 72 31 330 357 39 59 130 78 341 337 9 16 64 156 59 0 140 262 290 277 234 289 286 304 358 325 284 245
57 50 253 327 95 47 98 154 150 281 46 16 23 18 96 144 106 112 154 343 25 349 39 82 97 305 25 208 193 54 336 69 125 142 173 274 266 217 218 245 336 325 325 301 288
68 46 293 23 51 41 56 6 201 175 173 17 64 24 33 347 64 123 177 204 275 146 134 170 135 172 215 262 212 201 205 156 126 231 222 148 273 235 205 171 37 348 310 300 280
66 272 307 84 72 28 342 33 26 346 313 124 117 77 16 349 45 92 247 251 132 74 168 179 107 41 346 347 351 229 210 177 112 75 209 150 259 20 144 67 30 6 324 324 296
61 24 336 42 89 115 107 90 34 358 308 343 319 340 130 136 13 234 143 228 32 27 126 96 167 185 191 196 142 206 218 191 160 151 204 228 275 293 220 265 312 324 300 307 314
39 334 211 333 354 89 78 127 103 344 335 352 323 259 299 241 187 189 163 173 10 178 73 101 243 203 261 244 237 225 226 207 202 217 206 212 228 245 261 275 310 283 293 310 317
82 106 21 245 291 85 16 102 160 261 167 292 226 358 201 289 288 287 162 216 203 168 166 151 235 122 283 287 248 263 249 237 234 233 245 256 272 266 263 268 249 286 270 281 324
354 14 98 310 351 89 210 175 156 144 170 169 203 253 282 229 195 256 275 286 243 170 194 169 158 123 256 331 311 285 244 222 189 202 218 229 248 257 250 213 274 9 50 3 347